Showing default

GALAXY 23 (TELSTAR 13), 27854

Orbit data source: Space-Track

GALAXY 23 (TELSTAR 13), 27854 is a payload satellite owned by Echostar (US) in GEO that was launched on Fri, 08 Aug 2003 UTC via a ZENIT-3SL launch vehicle from the Sea Launch (SEAL). Payload-class satellites include a variety of spacecraft equipped with specific instruments for various scientific and technological missions. These include communications satellites like Starlink; space stations such as the ISS; scientific satellites like the Hubble; Earth observation satellites from companies like Planet Labs, Umbra, and HawkEye 360; GPS; miniature CubeSats for education and research; and military/defense satellites.

Loading next visibility...
Identifier
27854, 2003-034A
Orbit
GEO
Country
Flag of USUS
Related business
Manufacturer
SS/Loral
Mission
Non-operational Commercial Communications
Bus & Motor
SSL-1300, R-4D-11-164
Mass
4,737 kg wet, ~2,000 kg dry
Launch date (UTC)
2003-08-08 (23 years ago)
Launch vehicle
ZENIT-3SL
Launch site
Sea Launch (SEAL)
Object type
Payload
Rocket body
Debris
Shape & HBR
Box + 2 Pan, 15.5 m
Radar Cross Section
40.765 m², Large (>1 m²)

Expand to show TLE details & history
Last TLE update: 10 hours ago

TLE from 10 hours ago
0 GALAXY 23 (TELSTAR 13)
1 27854U 03034A   26265.36381490  .00000040  00000-0  00000-0 0  9995
2 27854   3.4520  78.3209 0003590 124.9412 182.9388  0.98952343 84656
Epoch: 2026-09-22T08:43Z
TLE epoch observation values (Epoch: 2026-09-22T08:43:53.607Z)
Latitude
-2.74017°
Longitude
-105.97482°
Altitude
36,175.775 km
Speed
3.06 km/s
True Right ascension
01h 44m 54s
True Declination
-2° 44' 15"
Sunlit
Object was in daylight at epoch
Visualization orbit readout
Latitude
Unknown
Longitude
Unknown
Altitude
Unknown
Speed
Unknown
Apparent Right ascension
Unknown
Apparent Declination
Unknown
Sunlit
N/A
Visualization observer readout
Local Sidereal Time
11:57:05
Azimuth
Unknown
Elevation
Unknown
Doppler factor
Unknown
Orbital elements
Apogee altitude
36,176.914 km
Perigee altitude
36,146.371 km
Semi-major axis
42,539.779 km
Eccentricity
0.00036
Inclination
3.452°
RAAN
78.3209°
Arg. of periapsis
124.9412°
True anomaly
182.93669°
Mean anomaly
182.9388°
Eccentric anomaly
182.93775°
Mean motion
0.24737 °/min
Orbital period
1,455.3 mins
BSTAR
0
Loading maneuver chart data...
Computing Atmospheric mass density...
Loading historical data...
Loading historical data...
Loading historical data...
Loading historical data...
Loading historical data...
Loading historical data...
Loading historical data...
Other satellites on launch #34 in the year 2003 (2003-08-08 UTC)

Documentation

Showing up to 5 results
|